Location: Unspecified
(49.9820°N, 20.4363°E)
Time: 04:46:01
(UTC+02:00)

Vanguard 3 - Pass Details

Date: 23 May 2026
Orbit: 507 x 3204 km, 33.3° (Epoch: 6 June)

Event Time Altitude Azimuth Distance (km) Brightness Sun altitude
Rises 18:52:11 0° 275° (W) 7,141 13.7 13.0°
Reaches altitude 10° 18:59:58 10° 258° (WSW) 6,089 12.8 11.8°
Maximum altitude 19:09:07 16° 228° (SW) 5,296 11.8 10.5°
Drops below altitude 10° 19:17:18 10° 198° (SSW) 5,302 11.3 9.2°
Sets 19:23:19 0° 179° (S) 5,812 11.3 8.3°
